User: anonymous
Location: Vancouver
(49.2500°N, 123.1330°W)
Time: 16:39:37
(UTC-07:00)
Language:

Oscar 11 - Orbit

View from above orbital plane
View from above orbital plane
View from above satellite
View from above satellite

Ground track
Ground track

The orbit data is extracted from the following two-line orbital elements,

1 14781U 84021B   14212.73952510  .00000620  00000-0  85333-4 0  5606
2 14781 097.8489 271.9910 0009274 045.0196 315.1767 14.81662838634565
Epoch (UTC): 31 July 2014 17:44:54
Eccentricity: 0.0009274
inclination: 97.8489°
perigee height: 617 km
apogee height: 630 km
right ascension of ascending node: 271.9910°
argument of perigee: 45.0196°
revolutions per day: 14.81662838
mean anomaly at epoch: 315.1767°
orbit number at epoch: 63456

The dashed part of the orbit path shows where the satellite is in the earth's shadow,  

DLR